Shannon, Ireland

12:08 PM IST on May 29, 2017 (GMT +0100)
Shannon

Weather History for EINN - March, 2014

Change the Weather History Date:

Wednesday, March 19, 2014

  Actual Average Record
Temperature  
Mean Temperature 52 °F -  
Max Temperature 59 °F 54 °F 64 °F (2005)
Min Temperature 46 °F 40 °F 30 °F (2001)
Degree Days  
Heating Degree Days 12    
Growing Degree Days 2 (Base 50)    
Moisture  
Dew Point 45 °F    
Average Humidity 79    
Maximum Humidity 93    
Minimum Humidity 62    
Precipitation  
Precipitation 0.00 in 0.08 in - ()
Sea Level Pressure  
Sea Level Pressure 30.00 in    
Wind  
Wind Speed 13 mph ()    
Max Wind Speed 31 mph    
Max Gust Speed 41 mph    
Visibility 8.9 miles    
Events Rain    
Averages and records for this station are not official NWS values.
T = Trace of Precipitation, MM = Missing Value Source: Averaged Metar Reports

Daily Weather History Graph

Daily Weather History Graph

Search for Another Location

Airport or City:

Trip Planner

Search our weather history database for the weather conditions in past years. The results will help you decide how hot, cold, wet, or windy it might be!

Date:

Astronomy

Mar. 19, 2014 Rise Set
Actual Time 6:40 AM GMT 6:46 PM GMT
Civil Twilight 6:06 AM GMT 7:21 PM GMT
Nautical Twilight 5:26 AM GMT 8:01 PM GMT
Astronomical Twilight 4:44 AM GMT 8:43 PM GMT
Moon 10:18 PM GMT (3/19) 7:35 AM GMT (3/19)
Length of Visible Light 13h 14m
Length of Day
12h 06m
Waning Gibbous, 92% of the Moon is Illuminated
Mar 19
Waning Gibbous
Mar 24
Last Quarter
Mar 30
New
Apr 7
First Quarter
Apr 15
Full

Hourly Weather History & Observations

Time (GMT) Temp. Windchill Dew Point Humidity Pressure Visibility Wind Dir Wind Speed Gust Speed Precip Events Conditions
12:00 AM 49 °F - 46 °F 86% 30.20 in 5 mi SW 13.4 mph - - Rain Light Drizzle
12:00 AM 48.2 °F - 46.4 °F 93% 30.18 in 5.0 mi SW 13.8 mph - N/A   Light Drizzle
12:30 AM 48.2 °F - 46.4 °F 93% 30.18 in 6.2 mi SW 11.5 mph - N/A   Light Drizzle
1:00 AM 49 °F - 46 °F 87% 30.18 in 16 mi SSW 11.2 mph - - Rain Light Drizzle
1:00 AM 50.0 °F - 46.4 °F 87% 30.15 in 6.2 mi SSW 11.5 mph - N/A   Scattered Clouds
1:30 AM 50.0 °F - 46.4 °F 87% 30.15 in 6.2 mi SW 16.1 mph - N/A   Scattered Clouds
2:00 AM 49 °F - 45 °F 81% 30.16 in 16 mi SW 13.4 mph - -   Scattered Clouds
2:00 AM 48.2 °F - 44.6 °F 87% 30.15 in 6.2 mi SW 12.7 mph - N/A   Partly Cloudy
2:30 AM 48.2 °F - 44.6 °F 87% 30.12 in 6.2 mi SW 13.8 mph - N/A   Partly Cloudy
3:00 AM 48 °F - 44 °F 81% 30.13 in 16 mi SW 13.4 mph - -   Partly Cloudy
3:00 AM 48.2 °F - 44.6 °F 87% 30.12 in 6.2 mi SW 13.8 mph - N/A   Partly Cloudy
3:30 AM 48.2 °F - 44.6 °F 87% 30.12 in 6.2 mi SW 10.4 mph - N/A   Partly Cloudy
4:00 AM 47 °F - 44 °F 83% 30.13 in 19 mi SSE 6.7 mph - -   Scattered Clouds
4:00 AM 48.2 °F - 42.8 °F 82% 30.12 in 6.2 mi SSE 6.9 mph - N/A   Partly Cloudy
4:30 AM 46.4 °F 43.5 °F 42.8 °F 87% 30.12 in 6.2 mi South 5.8 mph - N/A   Partly Cloudy
5:00 AM 47 °F - 44 °F 84% 30.12 in 19 mi South 6.7 mph - -   Scattered Clouds
5:00 AM 48.2 °F - 44.6 °F 87% 30.09 in 6.2 mi South 5.8 mph - N/A   Partly Cloudy
5:30 AM 48.2 °F - 44.6 °F 87% 30.09 in 6.2 mi South 5.8 mph - N/A   Partly Cloudy
6:00 AM 47 °F - 44 °F 83% 30.11 in 19 mi SE 4.5 mph - -   Partly Cloudy
6:00 AM 46.4 °F 44.3 °F 42.8 °F 87% 30.09 in 6.2 mi SE 4.6 mph - N/A   Partly Cloudy
6:30 AM 48.2 °F - 44.6 °F 87% 30.09 in 6.2 mi SE 5.8 mph - N/A   Mostly Cloudy
7:00 AM 48 °F - 45 °F 84% 30.10 in 12 mi South 6.7 mph - -   Scattered Clouds
7:00 AM 48.2 °F - 44.6 °F 87% 30.09 in 6.2 mi South 5.8 mph - N/A   Mostly Cloudy
7:30 AM 48.2 °F - 44.6 °F 87% 30.09 in 6.2 mi SSE 6.9 mph - N/A   Mostly Cloudy
8:00 AM 49 °F - 45 °F 82% 30.11 in 12 mi South 11.2 mph - -   Scattered Clouds
8:00 AM 50.0 °F - 44.6 °F 82% 30.09 in 6.2 mi South 11.5 mph - N/A   Mostly Cloudy
8:30 AM 50.0 °F - 46.4 °F 87% 30.09 in 6.2 mi SSW 16.1 mph - N/A   Mostly Cloudy
9:00 AM 51 °F - 46 °F 77% 30.10 in 12 mi SSW 17.9 mph - -   Mostly Cloudy
9:00 AM 50.0 °F - 46.4 °F 87% 30.09 in 6.2 mi SSW 18.4 mph - N/A   Mostly Cloudy
9:30 AM 51.8 °F - 46.4 °F 82% 30.09 in 6.2 mi SSW 18.4 mph - N/A   Mostly Cloudy
10:00 AM 51 °F - 46 °F 77% 30.10 in 12 mi SSW 17.9 mph - -   Mostly Cloudy
10:00 AM 51.8 °F - 46.4 °F 82% 30.09 in 6.2 mi SSW 18.4 mph - N/A   Mostly Cloudy
10:30 AM 51.8 °F - 46.4 °F 82% 30.06 in 6.2 mi SSW 20.7 mph - N/A   Mostly Cloudy
11:00 AM 54 °F - 46 °F 67% 30.07 in 16 mi SSW 20.1 mph - -   Mostly Cloudy
11:00 AM 53.6 °F - 46.4 °F 77% 30.06 in 6.2 mi SSW 20.7 mph - N/A   Mostly Cloudy
11:30 AM 53.6 °F - 46.4 °F 77% 30.04 in 6.2 mi SSW 20.7 mph - N/A   Mostly Cloudy
12:00 PM 54 °F - 47 °F 68% 30.04 in 16 mi SSW 20.1 mph - -   Mostly Cloudy
12:00 PM 53.6 °F - 46.4 °F 77% 30.04 in 6.2 mi SSW 20.7 mph - N/A   Mostly Cloudy
12:30 PM 57.2 °F - 48.2 °F 72% 30.01 in 6.2 mi SSW 17.3 mph - N/A   Mostly Cloudy
1:00 PM 57 °F - 47 °F 62% 30.01 in 16 mi SW 17.9 mph - -   Partly Cloudy
1:00 PM 57.2 °F - 48.2 °F 72% 30.01 in 6.2 mi SW 18.4 mph - N/A   Scattered Clouds
1:30 PM 59.0 °F - 48.2 °F 67% 29.98 in 6.2 mi SSW 18.4 mph - N/A   Mostly Cloudy
2:00 PM 57 °F - 48 °F 63% 30.00 in 19 mi SW 20.1 mph - -   Mostly Cloudy
2:00 PM 57.2 °F - 48.2 °F 72% 29.98 in 6.2 mi SW 19.6 mph - N/A   Mostly Cloudy
2:30 PM 57.2 °F - 46.4 °F 67% 29.98 in 6.2 mi SW 26.5 mph - N/A   Mostly Cloudy
3:00 PM 56 °F - 47 °F 64% 29.97 in 16 mi SW 22.4 mph - -   Mostly Cloudy
3:00 PM 55.4 °F - 48.2 °F 77% 29.95 in 6.2 mi SW 23.0 mph - N/A   Mostly Cloudy
3:30 PM 55.4 °F - 46.4 °F 72% 29.95 in 6.2 mi SW 20.7 mph - N/A   Mostly Cloudy
4:00 PM 54 °F - 47 °F 70% 29.95 in 12 mi SW 15.7 mph - -   Mostly Cloudy
4:00 PM 53.6 °F - 46.4 °F 77% 29.95 in 6.2 mi SW 15.0 mph - N/A   Mostly Cloudy
4:30 PM 53.6 °F - 46.4 °F 77% 29.92 in 6.2 mi South 16.1 mph - N/A   Mostly Cloudy
5:00 PM 53.6 °F - 46.4 °F 77% 29.89 in 6.2 mi South 16.1 mph - N/A   Mostly Cloudy
5:30 PM 53.6 °F - 46.4 °F 77% 29.89 in 6.2 mi South 13.8 mph - N/A   Mostly Cloudy
6:00 PM 53 °F - 46 °F 69% 29.90 in 16 mi South 15.7 mph - -   Mostly Cloudy
6:00 PM 51.8 °F - 46.4 °F 82% 29.89 in 6.2 mi South 16.1 mph - N/A   Mostly Cloudy
6:30 PM 51.8 °F - 44.6 °F 76% 29.86 in 6.2 mi South 11.5 mph - N/A   Mostly Cloudy
7:00 PM 52 °F - 45 °F 69% 29.83 in 16 mi South 29.1 mph - -   Scattered Clouds
7:00 PM 51.8 °F - 44.6 °F 76% 29.80 in 6.2 mi South 29.9 mph 41.4 mph N/A   Mostly Cloudy
7:30 PM 51.8 °F - 44.6 °F 76% 29.83 in 6.2 mi South 19.6 mph - N/A   Scattered Clouds
8:00 PM 51 °F - 44 °F 70% 29.84 in 12 mi SSE 13.4 mph - -   Partly Cloudy
8:00 PM 50.0 °F - 44.6 °F 82% 29.83 in 6.2 mi SSE 12.7 mph - N/A   Scattered Clouds
8:30 PM 51.8 °F - 42.8 °F 71% 29.80 in 6.2 mi South 15.0 mph - N/A   Partly Cloudy
9:00 PM 51 °F - 43 °F 66% 29.81 in 12 mi South 17.9 mph - -   Scattered Clouds
9:00 PM 50.0 °F - 42.8 °F 76% 29.80 in 6.2 mi South 18.4 mph - N/A   Partly Cloudy
9:30 PM 50.0 °F - 42.8 °F 76% 29.77 in 6.2 mi SSW 21.9 mph 34.5 mph N/A   Partly Cloudy
10:00 PM 51 °F - 44 °F 68% 29.77 in 12 mi South 20.1 mph - -   Scattered Clouds
10:00 PM 50.0 °F - 42.8 °F 76% 29.77 in 6.2 mi South 19.6 mph - N/A   Partly Cloudy
10:30 PM 50.0 °F - 44.6 °F 82% 29.71 in 6.2 mi South 21.9 mph - N/A   Partly Cloudy
11:00 PM 51 °F - 44 °F 70% 29.71 in 12 mi South 24.6 mph - -   Scattered Clouds
11:00 PM 51.8 °F - 44.6 °F 76% 29.68 in 6.2 mi South 24.2 mph - N/A   Partly Cloudy
11:30 PM 51.8 °F - 44.6 °F 76% 29.65 in 6.2 mi South 31.1 mph - N/A   Mostly Cloudy